| time (UTC) | temp F | wind direction | speed knots | gust knots | rain 1hr in | rain 24hr in | rain mn in | humidity % | barometer mb |
| 20260903214611 | 75 | 0 | 0.0 | 0.9 | 0.00 | 0.00 | 0.00 | 69 | 1010.8 |
| 20260903213056 | 75 | 0 | 0.0 | 0.0 | 0.00 | 0.00 | 0.00 | 74 | 1010.9 |
| 20260903211615 | 76 | 0 | 0.0 | 0.0 | 0.00 | 0.00 | 0.00 | 75 | 1011.0 |
| 20260903210056 | 77 | 0 | 0.0 | 0.0 | 0.00 | 0.00 | 0.00 | 70 | 1011.3 |
| 20260903204603 | 79 | 0 | 0.0 | 0.0 | 0.00 | 0.00 | 0.00 | 74 | 1010.7 |
| 20260903203057 | 78 | 0 | 0.0 | 0.9 | 0.00 | 0.00 | 0.00 | 73 | 1010.8 |
| 20260903201557 | 78 | 0 | 0.0 | 0.0 | 0.00 | 0.00 | 0.00 | 79 | 1010.6 |
| 20260903200109 | 79 | 0 | 0.0 | 0.0 | 0.00 | 0.00 | 0.00 | 79 | 1010.5 |
| 20260903194559 | 79 | 0 | 0.0 | 0.0 | 0.00 | 0.00 | 0.00 | 78 | 1010.6 |
| 20260903193101 | 78 | 0 | 0.0 | 3.5 | 0.00 | 0.00 | 0.00 | 78 | 1010.7 |
| 20260903191601 | 78 | 0 | 0.0 | 0.0 | 0.00 | 0.00 | 0.00 | 79 | 1010.9 |
| 20260903190103 | 77 | 0 | 0.0 | 0.0 | 0.00 | 0.00 | 0.00 | 80 | 1010.9 |
| 20260903184603 | 76 | 0 | 0.0 | 0.0 | 0.00 | 0.00 | 0.00 | 81 | 1011.0 |
| 20260903183118 | 76 | 0 | 0.0 | 0.0 | 0.00 | 0.00 | 0.00 | 83 | 1011.3 |
| 20260903181610 | 76 | 0 | 0.0 | 0.0 | 0.00 | 0.00 | 0.00 | 82 | 1011.4 |
| 20260903180054 | 75 | 0 | 0.0 | 0.0 | 0.00 | 0.00 | 0.00 | 83 | 1011.6 |
| 20260903174602 | 75 | 0 | 0.0 | 0.0 | 0.00 | 0.00 | 0.00 | 84 | 1011.6 |
| 20260903173107 | 75 | 0 | 0.0 | 0.0 | 0.00 | 0.00 | 0.00 | 85 | 1011.8 |
| 20260903171607 | 74 | 0 | 0.0 | 0.0 | 0.00 | 0.00 | 0.00 | 86 | 1011.9 |
| 20260903170057 | 74 | 0 | 0.0 | 0.0 | 0.00 | 0.00 | 0.00 | 85 | 1012.0 |
| 20260903164557 | 73 | 0 | 0.0 | 0.0 | 0.00 | 0.00 | 0.00 | 87 | 1012.0 |
| 20260903163052 | 72 | 0 | 0.0 | 0.0 | 0.00 | 0.00 | 0.00 | 88 | 1012.3 |
| 20260903161616 | 71 | 0 | 0.0 | 0.0 | 0.00 | 0.00 | 0.00 | 88 | 1012.4 |
| 20260903160055 | 71 | 0 | 0.0 | 0.0 | 0.00 | 0.00 | 0.00 | 89 | 1012.7 |
| 20260903154605 | 71 | 0 | 0.0 | 0.0 | 0.00 | 0.00 | 0.00 | 89 | 1012.8 |
| 20260903153059 | 70 | 0 | 0.0 | 0.0 | 0.00 | 0.00 | 0.00 | 89 | 1012.9 |
| 20260903151609 | 71 | 0 | 0.0 | 0.0 | 0.00 | 0.00 | 0.00 | 88 | 1013.1 |
| 20260903150105 | 71 | 0 | 0.0 | 0.0 | 0.00 | 0.00 | 0.00 | 87 | 1013.0 |
| 20260903144600 | 71 | 0 | 0.0 | 0.0 | 0.00 | 0.00 | 0.00 | 86 | 1013.0 |
| 20260903143055 | 71 | 0 | 0.0 | 0.0 | 0.00 | 0.00 | 0.00 | 87 | 1013.0 |
| 20260903141555 | 71 | 0 | 0.0 | 0.0 | 0.00 | 0.00 | 0.00 | 89 | 1013.0 |
| 20260903140106 | 70 | 0 | 0.0 | 0.0 | 0.00 | 0.00 | 0.00 | 90 | 1013.2 |
| 20260903134609 | 69 | 0 | 0.0 | 0.0 | 0.00 | 0.00 | 0.00 | 90 | 1013.1 |
| 20260903133100 | 69 | 0 | 0.0 | 0.0 | 0.00 | 0.00 | 0.00 | 90 | 1013.2 |
| 20260903131602 | 69 | 0 | 0.0 | 0.0 | 0.00 | 0.00 | 0.00 | 90 | 1013.2 |
| 20260903130054 | 68 | 0 | 0.0 | 0.0 | 0.00 | 0.00 | 0.00 | 90 | 1013.1 |
| 20260903124604 | 68 | 0 | 0.0 | 0.0 | 0.00 | 0.00 | 0.00 | 91 | 1013.2 |
| 20260903123058 | 68 | 0 | 0.0 | 0.0 | 0.00 | 0.00 | 0.00 | 91 | 1013.2 |
| 20260903121559 | 68 | 0 | 0.0 | 0.0 | 0.00 | 0.00 | 0.00 | 90 | 1013.1 |
| 20260903120056 | 68 | 0 | 0.0 | 0.0 | 0.00 | 0.00 | 0.00 | 90 | 1013.1 |
| 20260903114556 | 68 | 0 | 0.0 | 0.0 | 0.00 | 0.00 | 0.00 | 91 | 1013.4 |
| 20260903113056 | 67 | 0 | 0.0 | 0.0 | 0.00 | 0.00 | 0.00 | 91 | 1013.3 |
| 20260903111554 | 67 | 0 | 0.0 | 0.0 | 0.00 | 0.00 | 0.00 | 92 | 1013.3 |
| 20260903110059 | 67 | 0 | 0.0 | 0.0 | 0.00 | 0.00 | 0.00 | 91 | 1013.3 |
| 20260903104601 | 66 | 0 | 0.0 | 0.0 | 0.00 | 0.00 | 0.00 | 91 | 1013.3 |
| 20260903103059 | 66 | 0 | 0.0 | 0.0 | 0.00 | 0.00 | 0.00 | 91 | 1013.3 |
| 20260903101557 | 66 | 0 | 0.0 | 4.3 | 0.00 | 0.00 | 0.00 | 91 | 1013.3 |
| 20260903100056 | 66 | 0 | 0.0 | 0.9 | 0.00 | 0.00 | 0.00 | 91 | 1013.2 |
| 20260903094608 | 66 | 0 | 0.0 | 0.0 | 0.00 | 0.00 | 0.00 | 91 | 1013.2 |
| 20260903093054 | 66 | 0 | 0.0 | 0.0 | 0.00 | 0.00 | 0.00 | 90 | 1013.0 |
| 20260903091603 | 66 | 0 | 0.0 | 0.9 | 0.00 | 0.00 | 0.00 | 90 | 1013.1 |
| 20260903090100 | 66 | 0 | 0.0 | 3.5 | 0.00 | 0.00 | 0.00 | 89 | 1013.4 |
| 20260903084600 | 66 | 0 | 0.0 | 5.2 | 0.00 | 0.00 | 0.00 | 89 | 1013.2 |
| 20260903083104 | 66 | 0 | 0.0 | 3.5 | 0.00 | 0.00 | 0.00 | 90 | 1013.3 |
| 20260903081555 | 66 | 0 | 0.0 | 2.6 | 0.00 | 0.00 | 0.00 | 90 | 1013.5 |
| 20260903080059 | 66 | 0 | 0.0 | 4.3 | 0.00 | 0.00 | 0.00 | 90 | 1013.5 |
| 20260903074557 | 66 | 0 | 0.0 | 6.1 | 0.00 | 0.00 | 0.00 | 90 | 1013.8 |
| 20260903073112 | 66 | 0 | 0.0 | 3.5 | 0.00 | 0.00 | 0.00 | 90 | 1013.7 |
| 20260903071602 | 65 | 0 | 0.0 | 2.6 | 0.00 | 0.00 | 0.00 | 90 | 1013.6 |
| 20260903070103 | 66 | 0 | 0.0 | 3.5 | 0.00 | 0.00 | 0.00 | 90 | 1013.6 |
| 20260903064558 | 66 | 0 | 0.0 | 0.0 | 0.00 | 0.00 | 0.00 | 89 | 1013.7 |
| 20260903063104 | 66 | 0 | 0.0 | 6.1 | 0.00 | 0.00 | 0.00 | 87 | 1013.9 |
| 20260903061600 | 66 | 0 | 0.0 | 3.5 | 0.00 | 0.00 | 0.00 | 86 | 1014.2 |
| 20260903060100 | 66 | 0 | 0.0 | 7.0 | 0.00 | 0.00 | 0.00 | 86 | 1013.7 |
| 20260903054553 | 66 | 0 | 0.0 | 5.2 | 0.00 | 0.00 | 0.00 | 85 | 1014.1 |
| 20260903053057 | 66 | 0 | 0.0 | 5.2 | 0.00 | 0.00 | 0.00 | 85 | 1014.2 |
| 20260903051556 | 66 | 279 | 0.0 | 6.1 | 0.00 | 0.00 | 0.00 | 84 | 1014.6 |
| 20260903050106 | 67 | 0 | 0.0 | 10.4 | 0.00 | 0.00 | 0.00 | 82 | 1015.1 |
| 20260903044600 | 67 | 277 | 0.9 | 5.2 | 0.00 | 0.00 | 0.00 | 81 | 1014.9 |
| 20260903043108 | 67 | 317 | 0.0 | 5.2 | 0.00 | 0.00 | 0.00 | 79 | 1014.5 |
| 20260903041555 | 67 | 282 | 1.7 | 8.7 | 0.00 | 0.00 | 0.00 | 78 | 1014.3 |
| 20260903040110 | 67 | 276 | 0.9 | 6.1 | 0.00 | 0.00 | 0.00 | 78 | 1014.7 |
| 20260903034559 | 67 | 0 | 0.9 | 13.0 | 0.00 | 0.00 | 0.00 | 78 | 1014.5 |
| 20260903033058 | 67 | 0 | 0.0 | 7.0 | 0.00 | 0.00 | 0.00 | 79 | 1014.6 |
| 20260903031555 | 67 | 0 | 0.0 | 10.4 | 0.00 | 0.00 | 0.00 | 80 | 1014.7 |
| 20260903030108 | 67 | 265 | 0.9 | 9.6 | 0.00 | 0.00 | 0.00 | 79 | 1015.0 |
| 20260903024554 | 68 | 268 | 0.0 | 8.7 | 0.00 | 0.00 | 0.00 | 76 | 1015.4 |
| 20260903023107 | 69 | 313 | 1.7 | 10.4 | 0.00 | 0.00 | 0.00 | 74 | 1015.4 |
| 20260903021556 | 68 | 0 | 0.0 | 13.0 | 0.00 | 0.00 | 0.00 | 74 | 1015.7 |
| 20260903020058 | 69 | 255 | 0.9 | 8.7 | 0.00 | 0.00 | 0.00 | 75 | 1015.9 |
| 20260903014602 | 69 | 0 | 0.0 | 7.0 | 0.00 | 0.00 | 0.00 | 76 | 1016.1 |
| 20260903013057 | 69 | 168 | 0.0 | 7.0 | 0.00 | 0.00 | 0.00 | 77 | 1016.5 |
| 20260903011558 | 69 | 0 | 0.0 | 5.2 | 0.00 | 0.00 | 0.00 | 79 | 1016.8 |
| 20260903004603 | 69 | 279 | 0.0 | 7.0 | 0.00 | 0.00 | 0.00 | 77 | 1016.5 |
| 20260903003055 | 69 | 0 | 0.0 | 3.5 | 0.00 | 0.00 | 0.00 | 78 | 1016.4 |
| 20260903001559 | 69 | 0 | 0.0 | 1.7 | 0.00 | 0.00 | 0.00 | 79 | 1016.3 |
| 20260903000105 | 69 | 0 | 0.0 | 0.9 | 0.00 | 0.00 | 0.00 | 80 | 1016.1 |
| 20260902234555 | 69 | 0 | 0.0 | 0.9 | 0.00 | 0.00 | 0.00 | 83 | 1015.7 |
| 20260902233101 | 69 | 0 | 0.0 | 4.3 | 0.00 | 0.00 | 0.00 | 80 | 1016.2 |
| 20260902231600 | 69 | 0 | 0.0 | 1.7 | 0.00 | 0.00 | 0.00 | 81 | 1015.9 |
| 20260902230104 | 69 | 0 | 0.0 | 5.2 | 0.00 | 0.00 | 0.00 | 81 | 1016.1 |
| 20260902224600 | 69 | 0 | 0.0 | 2.6 | 0.00 | 0.00 | 0.00 | 82 | 1016.7 |
| 20260902223116 | 69 | 0 | 0.0 | 0.9 | 0.00 | 0.00 | 0.00 | 83 | 1017.0 |
| 20260902221556 | 69 | 0 | 0.0 | 2.6 | 0.00 | 0.00 | 0.00 | 81 | 1018.0 |
| 20260902220054 | 69 | 0 | 0.0 | 0.0 | 0.00 | 0.00 | 0.00 | 81 | 1018.2 |